User: anonymous   Login
Location: Brno
(49.2000°N, 16.6330°E)
Time: 02:10:57
(UTC+02:00)
Language:

BREEZE M DEB (TANK) - Orbit

View from above orbital plane
View from above orbital plane
View from above satellite
View from above satellite

Ground track
Ground track

The orbit data is extracted from the following two-line orbital elements,

1 28359U 04022B   17147.23165390 +.00001222 +00000-0 +20175-3 0  9999
2 28359 049.5281 067.6804 4660325 210.4106 111.6223 06.20053561284007
Epoch (UTC): 27 May 2017 05:33:34
Eccentricity: 0.4660325
inclination: 49.5281°
perigee height: 305 km
apogee height: 11970 km
right ascension of ascending node: 67.6804°
argument of perigee: 210.4106°
revolutions per day: 6.20053561
mean anomaly at epoch: 111.6223°
orbit number at epoch: 28400

The dashed part of the orbit path shows where the satellite is in the earth's shadow,  

DLR